Starlink 34838

operational
NORAD ID: 65343 Int'l Des: 2025-189 Owner: SPXS Country: US Constellation: starlink
LEOCIRCULAR

About Starlink 34838

Description loading...

Live Position

Loading 3D Globe...

Upcoming Passes

Altitude History

Altitude vs Time

uPlot chart will show altitude changes over time

Two-Line Element Set

1 65343U 25189W 26062.62694661 .00052553 00000-0 17720-2 0 9991
2 65343 53.1577 235.2458 0000913 100.6365 259.4739 15.30236797 30188
Epoch: Mar 3, 2026 • Age: 27 hours

Current Status

Altitude 494.0 km
Velocity 7.62 km/s
Sub-Earth Point -53.08°S, 59.84°W
Launch Date Aug 27, 2025
Age 0.5 years
Type internet

Technical Details

Classification Payload
Mass 575.00 kg
Dry Mass 530.00 kg
Total Mass 575.00 kg
Length 0.30 m
Diameter 4.10 m
Span 29.00 m
Shape Box + pan
Manufacturer SPXS
Bus Type Starlink V2MO
Phase Status In Orbit
Owner/State SPXS/US

Large Constellations

Loading constellations...